Location: Go�ngahuizen
(53.0821°N, 5.8849°E)
Time: 09:19:59
(UTC+00:00)

SL-4 R/B - Pass Details

Date: 09 April 2020
Orbit: 428 x 666 km, 51.6° (Epoch: 24 May)

Event Time Altitude Azimuth Distance (km) Brightness Sun altitude
Rises 19:02:01 0° 239° (WSW) 2,396 5.9 -5.9°
Reaches altitude 10° 19:04:10 10° 232° (SW) 1,524 4.7 -6.2°
Maximum altitude 19:07:24 43° 160° (SSE) 618 2.0 -6.6°
Drops below altitude 10° 19:10:42 10° 88° (E) 1,546 3.8 -7.1°
Enters shadow 19:11:19 - 85° (E) 1,793 4.1 -7.2°
